TimeMST,TemperatureF,Dew PointF,Humidity,Sea Level PressureIn,VisibilityMPH,Wind Direction,Wind SpeedMPH,Gust SpeedMPH,PrecipitationIn,Events,Conditions,WindDirDegrees,DateUTC
12:53 AM,25.0,3.9,41,29.95,10.0,SW,19.6,-,N/A,,Clear,220,2013-01-07 07:53:00
1:53 AM,19.0,3.9,52,30.00,10.0,North,3.5,-,N/A,,Clear,10,2013-01-07 08:53:00
2:53 AM,12.9,1.9,62,30.09,10.0,East,5.8,-,N/A,,Clear,90,2013-01-07 09:53:00
3:53 AM,23.0,1.9,40,29.99,10.0,WSW,8.1,-,N/A,,Clear,240,2013-01-07 10:53:00
4:53 AM,12.9,-0.0,56,30.07,10.0,Calm,Calm,-,N/A,,Clear,0,2013-01-07 11:53:00
5:53 AM,17.1,-2.0,43,30.08,10.0,Variable,3.5,-,N/A,,Clear,0,2013-01-07 12:53:00
6:50 AM,15.8,1.4,53,29.97,10.0,South,16.1,-,N/A,,Clear,180,2013-01-07 13:50:00
6:53 AM,16.0,1.0,52,30.09,10.0,South,18.4,-,N/A,,Clear,180,2013-01-07 13:53:00
7:53 AM,19.0,1.9,47,30.06,10.0,SSW,16.1,-,N/A,,Clear,200,2013-01-07 14:53:00
8:53 AM,14.0,1.9,59,30.09,10.0,SE,12.7,-,N/A,,Clear,140,2013-01-07 15:53:00
9:53 AM,21.9,3.9,46,30.05,10.0,South,12.7,-,N/A,,Clear,180,2013-01-07 16:53:00
10:53 AM,26.1,10.0,51,30.01,10.0,South,16.1,-,N/A,,Clear,190,2013-01-07 17:53:00
11:53 AM,30.9,12.0,46,29.97,10.0,SSE,9.2,-,N/A,,Clear,150,2013-01-07 18:53:00
12:53 PM,32.0,15.1,50,29.93,-9999.0,SSW,11.5,-,N/A,,Clear,200,2013-01-07 19:53:00
1:53 PM,33.1,15.1,48,29.94,10.0,SSW,12.7,-,N/A,,Unknown,210,2013-01-07 20:53:00
2:53 PM,33.1,10.9,40,29.98,-9999.0,SW,19.6,-,N/A,,Clear,230,2013-01-07 21:53:00
4:53 PM,24.1,9.0,53,30.04,10.0,West,6.9,-,N/A,,Clear,270,2013-01-07 23:53:00
5:53 PM,26.1,9.0,49,29.96,10.0,SW,16.1,-,N/A,,Clear,220,2013-01-08 00:53:00
6:53 PM,26.1,10.0,51,29.96,10.0,SSW,16.1,-,N/A,,Clear,200,2013-01-08 01:53:00
7:53 PM,28.0,10.0,47,29.90,10.0,SW,26.5,-,N/A,,Clear,230,2013-01-08 02:53:00
8:53 PM,28.9,10.0,45,29.91,-9999.0,WSW,27.6,35.7,N/A,,Overcast,240,2013-01-08 03:53:00
9:53 PM,28.0,12.9,53,29.89,10.0,SW,24.2,-,N/A,,Clear,230,2013-01-08 04:53:00
10:53 PM,28.9,14.0,54,29.82,10.0,WSW,32.2,-,N/A,,Scattered Clouds,240,2013-01-08 05:53:00
11:53 PM,28.9,18.0,64,29.84,10.0,WSW,26.5,35.7,N/A,,Mostly Cloudy,240,2013-01-08 06:53:00